Location: Angwan Shehu
(11.2514°N, 7.4613°E)
Time: 06:33:03
(UTC+00:00)

CZ-4 R/B - Pass Details

Date: 14 November 2019
Orbit: 529 x 601 km, 97.8° (Epoch: 06 December)

Event Time Altitude Azimuth Distance (km) Brightness Sun altitude
Rises 18:19:23 0° 175° (S) 2,839 5.1 -18.7°
Reaches altitude 10° 18:21:35 10° 178° (S) 1,936 4.3 -19.2°
Maximum altitude 18:25:44 62° 259° (W) 673 1.9 -20.2°
Drops below altitude 10° 18:29:53 10° 340° (NNW) 1,921 4.1 -21.2°
Sets 18:32:03 0° 343° (NNW) 2,814 5.0 -21.7°
